Total_Precipitation_Accumulation
1.77 1.67 1.58 1.54 1.45 1.63 1.95 2.15 2.08 2.07 2.02 1.90 1.71 1.53 1.39 1.35 1.32 1.43 1.53 1.73 1.73 1.70 1.80 1.92 1.82 1.64 1.54 1.37 1.16 1.02 0.95 0.91 0.84 0.67 0.58 0.49 0.42 0.41 0.43 0.48 0.47 0.44 0.43
2.16 2.24 2.13 1.95 1.65 1.63 1.74 2.07 2.20 2.32 2.21 2.07 1.54 1.46 1.47 1.48 1.52 1.51 1.56 2.03 2.09 1.73 1.63 1.71 1.84 1.85 1.75 1.63 1.43 1.21 1.09 1.01 0.87 0.68 0.60 0.52 0.43 0.39 0.43 0.50 0.51 0.42 0.32
2.31 2.31 2.09 1.77 1.57 1.65 1.74 1.70 1.75 2.05 1.84 1.70 1.51 1.60 1.65 1.55 1.51 1.51 1.54 1.83 1.91 1.63 1.41 1.36 1.53 1.68 1.81 1.94 1.86 1.71 1.47 1.22 1.00 0.80 0.66 0.53 0.44 0.38 0.37 0.46 0.53 0.46 0.33
1.99 2.00 1.66 1.30 1.38 1.59 1.67 1.63 1.58 1.69 1.68 1.71 1.68 1.64 1.62 1.52 1.30 1.24 1.15 1.14 1.24 1.10 1.18 1.37 1.36 1.34 1.60 1.94 2.14 2.29 2.05 1.58 1.22 0.96 0.78 0.61 0.49 0.38 0.33 0.37 0.45 0.42 0.33
1.45 1.53 1.25 1.12 1.27 1.41 1.45 1.42 1.56 1.65 1.53 1.60 1.61 1.50 1.24 1.11 0.98 0.87 0.83 0.76 0.80 0.84 0.83 1.05 1.16 1.22 1.54 2.00 2.37 2.68 2.65 2.22 1.75 1.39 1.12 0.84 0.67 0.48 0.38 0.33 0.35 0.37 0.31
1.14 1.30 1.20 1.09 1.22 1.30 1.27 1.41 1.52 1.60 1.37 1.35 1.30 1.05 0.87 0.66 0.62 0.57 0.49 0.53 0.56 0.56 0.65 0.80 1.04 0.97 1.36 1.75 2.14 2.53 2.87 2.72 2.14 1.75 1.57 1.34 1.10 0.79 0.50 0.35 0.31 0.31 0.27
1.08 1.21 1.11 1.02 1.02 1.04 1.01 1.16 1.28 1.29 1.07 1.27 1.42 0.95 0.65 0.52 0.45 0.35 0.33 0.37 0.40 0.48 0.64 0.84 1.03 1.04 1.20 1.35 1.56 1.91 2.50 2.76 2.46 2.03 1.82 1.62 1.48 1.14 0.74 0.51 0.36 0.27 0.23
0.89 0.96 0.94 0.85 0.81 0.84 0.83 0.90 1.04 1.04 0.93 1.20 1.34 1.20 0.85 0.63 0.50 0.36 0.36 0.37 0.41 0.52 0.59 0.70 0.97 1.11 1.16 1.53 1.35 1.38 1.81 2.30 2.51 2.35 2.13 1.76 1.53 1.27 0.96 0.76 0.56 0.38 0.28
0.62 0.61 0.61 0.65 0.70 0.70 0.72 0.78 0.94 1.07 0.94 0.97 1.19 1.31 1.05 0.74 0.65 0.50 0.49 0.53 0.58 0.65 0.72 0.86 0.98 1.09 1.18 1.45 1.49 1.45 1.45 1.61 2.13 2.59 2.59 2.10 1.55 1.25 1.16 1.11 0.98 0.71 0.52
0.44 0.43 0.45 0.55 0.62 0.67 0.71 0.67 0.72 0.88 0.93 0.85 0.95 1.06 1.08 1.08 1.02 0.74 0.56 0.53 0.60 0.63 0.66 0.71 0.81 0.96 1.04 1.26 1.59 1.58 1.43 1.33 1.51 2.14 2.56 2.50 2.01 1.44 1.19 1.24 1.51 1.37 0.97
0.43 0.39 0.39 0.41 0.50 0.58 0.64 0.66 0.69 0.74 0.81 0.80 0.81 0.86 0.93 1.03 1.03 0.94 0.69 0.54 0.55 0.54 0.61 0.67 0.74 0.81 0.89 1.14 1.52 1.53 1.52 1.33 1.27 1.45 1.84 2.08 2.03 1.74 1.48 1.51 2.00 2.31 2.03
0.39 0.39 0.39 0.41 0.43 0.44 0.48 0.55 0.61 0.66 0.72 0.74 0.74 0.81 0.89 0.88 0.88 0.99 0.86 0.70 0.64 0.58 0.67 0.74 0.85 0.94 0.96 1.04 1.03 1.10 1.12 1.14 1.11 1.07 1.14 1.31 1.56 1.69 1.72 1.91 2.33 2.76 2.91
0.32 0.36 0.38 0.43 0.48 0.49 0.49 0.51 0.57 0.64 0.70 0.76 0.75 0.78 0.86 0.90 0.90 0.99 0.96 0.79 0.73 0.77 0.88 0.90 0.89 0.97 0.93 1.09 1.03 0.87 0.73 0.74 0.74 0.73 0.75 0.85 1.04 1.26 1.41 1.54 1.85 2.24 2.56
0.29 0.35 0.40 0.43 0.46 0.52 0.55 0.62 0.65 0.70 0.75 0.78 0.76 0.87 0.93 0.89 0.98 1.04 1.10 1.12 1.00 0.99 1.12 1.01 0.83 0.82 0.85 0.88 0.84 0.76 0.76 0.61 0.51 0.47 0.48 0.54 0.62 0.74 0.87 1.02 1.20 1.40 1.62
0.24 0.25 0.32 0.43 0.45 0.48 0.56 0.65 0.69 0.74 0.80 0.85 0.89 0.98 1.05 1.03 1.03 1.03 1.16 1.26 1.30 1.25 1.28 1.17 0.99 0.88 0.80 0.73 0.72 0.71 0.76 0.72 0.52 0.38 0.35 0.36 0.44 0.51 0.56 0.59 0.69 0.80 0.93
0.21 0.22 0.26 0.33 0.37 0.40 0.49 0.62 0.70 0.77 0.89 0.97 0.97 1.00 1.08 1.11 1.16 1.16 1.17 1.25 1.38 1.46 1.40 1.13 1.05 0.97 0.84 0.65 0.62 0.59 0.61 0.66 0.51 0.36 0.29 0.28 0.30 0.35 0.41 0.46 0.51 0.55 0.62
0.20 0.18 0.19 0.21 0.22 0.25 0.33 0.50 0.71 0.83 0.94 0.99 1.01 1.06 1.09 1.18 1.20 1.12 1.17 1.23 1.33 1.46 1.33 1.07 1.11 1.23 1.09 0.84 0.66 0.59 0.52 0.52 0.50 0.43 0.29 0.25 0.25 0.26 0.31 0.35 0.37 0.42 0.47
0.22 0.19 0.17 0.16 0.14 0.17 0.26 0.43 0.60 0.76 0.91 1.02 1.05 1.06 0.97 0.98 1.09 1.13 1.16 1.20 1.24 1.37 1.31 1.20 1.16 1.26 1.24 1.07 0.88 0.68 0.51 0.43 0.44 0.48 0.36 0.27 0.24 0.25 0.28 0.30 0.29 0.31 0.35
0.29 0.26 0.23 0.21 0.25 0.30 0.37 0.47 0.53 0.65 0.81 0.90 0.93 0.92 0.88 0.92 0.93 1.03 1.09 1.11 1.13 1.13 1.20 1.22 1.21 1.33 1.34 1.19 0.96 0.76 0.58 0.53 0.48 0.45 0.39 0.35 0.31 0.30 0.32 0.29 0.26 0.28 0.32
0.29 0.28 0.27 0.31 0.37 0.43 0.46 0.46 0.49 0.56 0.62 0.68 0.73 0.72 0.70 0.76 0.82 0.88 0.91 0.94 0.99 1.05 1.10 1.12 1.20 1.33 1.36 1.34 1.13 0.89 0.69 0.57 0.53 0.46 0.43 0.47 0.48 0.45 0.41 0.36 0.29 0.27 0.30
0.27 0.31 0.35 0.37 0.41 0.44 0.43 0.46 0.50 0.45 0.51 0.50 0.48 0.51 0.53 0.56 0.63 0.72 0.74 0.78 0.87 0.93 0.98 1.08 1.16 1.31 1.34 1.39 1.23 1.00 0.84 0.71 0.61 0.55 0.53 0.52 0.52 0.46 0.41 0.40 0.36 0.29 0.25
0.33 0.38 0.40 0.41 0.42 0.38 0.36 0.36 0.36 0.34 0.37 0.41 0.41 0.39 0.38 0.43 0.48 0.53 0.58 0.63 0.73 0.81 0.90 1.00 1.10 1.22 1.31 1.29 1.24 1.15 1.03 0.85 0.66 0.63 0.74 0.73 0.61 0.57 0.68 0.63 0.48 0.30 0.23
0.44 0.46 0.48 0.50 0.51 0.53 0.39 0.30 0.25 0.27 0.32 0.37 0.42 0.44 0.32 0.26 0.35 0.44 0.51 0.52 0.54 0.61 0.74 0.88 0.98 1.09 1.26 1.33 1.36 1.27 1.19 1.05 0.82 0.65 0.63 0.58 0.56 0.60 0.84 0.96 0.69 0.39 0.29
0.67 0.68 0.68 0.67 0.67 0.62 0.47 0.32 0.25 0.23 0.29 0.34 0.39 0.43 0.41 0.35 0.35 0.41 0.50 0.54 0.51 0.49 0.55 0.67 0.76 0.96 1.28 1.51 1.53 1.50 1.46 1.37 1.14 0.87 0.74 0.63 0.56 0.56 0.55 0.60 0.65 0.46 0.34
0.93 0.97 0.99 0.95 0.89 0.82 0.63 0.41 0.32 0.31 0.38 0.41 0.43 0.43 0.43 0.39 0.32 0.28 0.39 0.48 0.52 0.52 0.50 0.59 0.69 0.85 1.08 1.41 1.59 1.61 1.64 1.46 1.23 0.95 0.74 0.68 0.55 0.54 0.51 0.46 0.52 0.57 0.46
1.12 1.11 1.02 0.94 0.89 0.87 0.76 0.51 0.43 0.43 0.50 0.52 0.58 0.56 0.47 0.43 0.36 0.29 0.36 0.46 0.48 0.50 0.55 0.58 0.62 0.66 0.79 1.06 1.32 1.35 1.36 1.39 1.17 0.96 0.70 0.63 0.57 0.51 0.49 0.43 0.40 0.45 0.50